Hourly Data Report for August 09, 2022

DRYDEN REGIONAL
ONTARIO
Current Station Operator: NAVCAN

49°49'39.000" N
92°44'39.000" W
412.70 m
6032125
71527
YHD

Download Data

Hourly Data (August 2022)
Hourly Data Report for August 9, 2022
TIME
LST
Temp Definition
°C
Dew Point Definition
°C
Rel Hum Definition
%
Precip. Amount Definition
mm

Wind Dir Definition
10's deg

Wind Spd Definition
km/h
Visibility Definition
km
Stn Press Definition
kPa
Hmdx Definition


Wind Chill Definition


Weather Definition


00:00 18.1 15.2 83 0.0 21 15 16.1 96.43     LegendNANA
01:00 17.7 15.0 84 0.0 21 13 16.1 96.40     LegendNANA
02:00 17.8 15.1 84 0.0 21 17 16.1 96.39     LegendNANA
03:00 17.7 15.0 84 0.0 21 15 16.1 96.33     LegendNANA
04:00 17.8 14.7 82 0.0 21 17 16.1 96.31     LegendNANA
05:00 17.8 14.5 81 0.0 21 21 16.1 96.29     LegendNANA
06:00 18.5 14.9 79 0.0 21 21 16.1 96.28     LegendNANA
07:00 21.3 15.3 68 0.0 23 21 16.1 96.25 25   LegendNANA
08:00 21.5 15.7 69 0.0 24 26 16.1 96.24 26   LegendNANA
09:00 23.2 16.5 66 0.0 25 32 16.1 96.27 28   LegendNANA
10:00 24.5 17.3 64 0.0 25 34 16.1 96.30 30   LegendNANA
11:00 25.8 17.4 59 0.0 25 22 16.1 96.34 31   LegendNANA
12:00 26.9 14.2 45 0.0 27 30 16.1 96.35 30   LegendNANA
13:00 26.9 11.1 37 0.0 26 39 16.1 96.39 29   LegendNANA
14:00 26.7 9.9 34 0.0 27 34 16.1 96.45 28   LegendNANA
15:00 25.6 10.9 39 0.0 31 22 16.1 96.50 27   LegendNANA
16:00 25.2 11.0 40 0.0 28 26 16.1 96.55 27   LegendNANA
17:00 24.0 12.0 47 0.0 30 15 16.1 96.60 26   LegendNANA
18:00 23.2 12.1 49 0.0 30 15 16.1 96.64 26   LegendNANA
19:00 21.6 11.7 53 0.0 29 15 16.1 96.69     LegendNANA
20:00 19.3 11.7 61 0.0 28 13 16.1 96.73     LegendNANA
21:00 17.9 11.8 67 0.0 28 9 16.1 96.80     LegendNANA
22:00 16.6 11.3 71 0.0 27 9 16.1 96.81     LegendNANA
23:00 15.1 11.1 77 0.0 24 8 16.1 96.86     LegendNANA

Notes on Data Quality.

Legend

  • E = Estimated
  • M = Missing
  • NA = Not Available*
  • [empty] = Indicates an unobserved value
Date modified: